sat.trackr.live / text

‹ back to catalog

STARLINK-5298

NORAD 55281 · 2023-010N

PAYLOAD ACTIVE UNKNOWN

§ Identity

Operator
Country
US
Launch date
2023-01-19
Launch site
AFWTR
Launch vehicle
Mass (kg)
RCS (m²)

Purposes: comms

External: N2YO · Heavens-Above · Gunter

§ Orbital elements

Epoch: 2026-05-24T21:52:16.682016Z

Period
96.11 min
Inclination
69.9993°
Eccentricity
0.0003349
Mean motion
14.98323737 rev/d
Perigee alt
569.7 km
Apogee alt
574.4 km
Semi-major
6,950.2 km
B*
-9.4842e-5
RAAN
212.2521°
Arg perigee
270.2550°
Mean anomaly
89.8226°
Rev number
18,419

§ Raw data

STARLINK-52981 55281U 23010N   26144.91130419 -.00001224  00000+0 -94842-4 0  99932 55281  69.9993 212.2521 0003349 270.2550  89.8226 14.98323737184198

JSON: /api/v1/satellites/55281 · /tle

For live sub-satellite position, see the globe view (requires WebGL).

§ Visibility from observer

Set your observer location to see the next 7 days of passes ≥ 10°. The values pass through the URL so the page stays shareable.

No JS? Fill the form by hand. The geolocation button needs JavaScript.